Find Starlink 30414

NORAD ID: 57859 Int'l Des: 2023-141 Owner: SPXS Country: US Constellation: starlink operational
LEOCIRCULAR

实时位置

正在加载3D地球...

关于 Starlink 30414

正在加载描述...

即将过境

Passes for default location (London). Set your location on the main map for personalized predictions.

高度历史

Loading altitude history...

两行轨道根数

1 57859U 23141V 26125.00694462 .00000012 00000-0 12537-4 0 9997
2 57859 53.1615 22.3050 0001139 79.7075 280.4054 15.30197782148951
Epoch: May 5, 2026 • Age: 14 hours

当前状态

高度 477.5 km
速度 7.63 km/s
星下点 -7.76°S, 63.2°W
发射日期 Sep 12, 2023
运行时间 2.6 years
类型 internet

技术详情

分类 Payload
质量 730.00 kg
干质量 700.00 kg
总质量 730.00 kg
长度 0.30 m
直径 4.10 m
跨度 29.00 m
形状 Box + pan
制造商 SPXS
平台类型 Starlink V2M
阶段状态 In Orbit
所有者/国家 SPXS/US

Most Searched